PDT,Max TemperatureF,Mean TemperatureF,Min TemperatureF,Max Dew PointF,MeanDew PointF,Min DewpointF,Max Humidity, Mean Humidity, Min Humidity, Max Sea Level PressureIn, Mean Sea Level PressureIn, Min Sea Level PressureIn, Max VisibilityMiles, Mean VisibilityMiles, Min VisibilityMiles, Max Wind SpeedMPH, Mean Wind SpeedMPH, Max Gust SpeedMPH,PrecipitationIn, CloudCover, Events, WindDirDegrees
2012-10-1,80,57,34,32,28,23,75,44,12,30.34,30.23,30.15,10,10,10,9,3,15,0.00,0,,166
2012-10-2,80,58,35,35,28,21,70,41,12,30.20,30.11,30.03,10,10,10,17,2,25,0.00,0,,184
2012-10-3,77,55,32,32,25,20,69,41,12,30.16,30.09,30.04,10,10,10,16,2,24,0.00,0,,183
2012-10-4,72,54,35,34,28,25,70,44,18,30.21,30.15,30.10,10,10,10,16,3,23,0.00,0,,195
2012-10-5,67,50,33,39,29,21,79,49,19,30.19,30.13,30.09,10,10,10,17,5,25,0.00,0,,198
2012-10-6,68,49,29,39,29,22,82,50,18,30.13,30.07,30.00,10,10,10,14,3,20,0.00,0,,190
2012-10-7,68,48,28,41,30,22,85,52,19,30.10,30.02,29.96,10,10,10,10,3,15,0.00,1,,185
2012-10-8,63,45,27,37,28,8,85,49,12,30.05,30.00,29.96,10,10,10,20,3,30,0.00,0,,195
2012-10-9,62,44,26,36,29,24,92,60,27,30.08,30.00,29.93,10,10,10,30,3,31,0.00,1,,147
2012-10-10,64,47,30,38,31,21,85,53,20,30.01,29.93,29.86,10,10,10,15,3,25,T,3,,177
2012-10-11,60,47,33,41,35,30,92,66,40,29.93,29.89,29.83,10,10,10,24,2,32,0.01,4,Rain,186
2012-10-12,54,44,33,45,40,31,100,82,63,30.21,30.02,29.88,10,9,3,17,3,23,0.28,4,Rain,185
2012-10-13,63,46,28,36,29,19,92,58,23,30.34,30.28,30.20,10,10,10,9,3,14,0.00,0,,163
2012-10-14,71,50,29,40,31,23,92,54,16,30.37,30.25,30.16,10,10,10,14,2,30,0.00,0,,198
2012-10-15,71,54,36,37,31,23,76,47,17,30.22,30.13,30.06,10,10,10,10,2,13,0.00,0,,110
2012-10-16,72,54,36,43,34,27,79,50,20,30.10,30.05,29.99,10,10,10,14,2,23,0.00,0,,198
2012-10-17,70,50,29,34,29,24,92,56,19,30.19,30.13,30.07,10,10,10,10,2,15,0.00,0,,187
2012-10-18,74,51,27,34,28,23,78,47,16,30.28,30.20,30.13,10,10,10,15,2,22,0.00,0,,198
2012-10-19,71,52,32,36,27,19,70,43,15,30.23,30.08,29.96,10,10,10,25,4,28,0.00,0,,194
2012-10-20,63,51,39,37,27,20,71,45,19,29.94,29.85,29.78,10,10,10,21,5,32,0.00,0,Rain,201
2012-10-21,54,45,36,29,14,-13,59,33,6,29.81,29.77,29.69,10,10,8,29,8,41,T,1,,193
2012-10-22,41,36,30,32,28,21,100,75,49,29.83,29.75,29.63,10,3,0,36,14,47,0.33,8,Fog-Snow,200
2012-10-23,35,32,28,29,26,19,92,74,56,29.98,29.89,29.78,10,4,0,21,11,39,0.12,7,Fog-Snow,187
2012-10-24,37,33,28,30,26,20,85,72,59,30.17,30.03,29.94,10,5,0,21,8,31,0.07,8,Fog-Snow,183
2012-10-25,47,37,26,31,26,22,92,69,45,30.34,30.22,30.16,10,9,3,13,6,17,0.01,4,Rain-Snow,171
2012-10-26,57,39,21,36,27,18,92,67,41,30.40,30.31,30.24,10,10,8,7,3,10,0.00,0,,180
2012-10-27,59,43,27,39,32,25,92,68,44,30.27,30.20,30.12,10,10,9,12,3,15,0.00,0,,184
2012-10-28,63,45,27,40,32,25,92,66,39,30.22,30.16,30.09,10,10,8,8,3,13,0.00,0,,170
2012-10-29,65,47,28,36,30,21,89,55,20,30.28,30.21,30.16,10,10,9,9,2,14,0.00,0,Snow,186
2012-10-30,67,47,27,36,26,16,85,50,15,30.27,30.16,30.06,10,10,9,15,2,20,0.00,0,Snow,199
2012-10-31,59,46,33,27,22,14,75,50,24,30.06,29.98,29.92,10,10,10,24,5,37,0.00,0,,194